| time (UTC) | temp F | wind direction | speed knots | gust knots | rain 1hr in | rain 24hr in | rain mn in | humidity % | barometer mb |
| 20260504014328 | 50 | 294 | 0.9 | 0.9 | 0.01 | 0.05 | 0.05 | 84 | 1006.7 |
| 20260504013828 | 50 | 275 | 0.9 | 0.9 | 0.01 | 0.05 | 0.05 | 84 | 1006.8 |
| 20260504013316 | 50 | 152 | 0.0 | 0.0 | 0.01 | 0.05 | 0.05 | 86 | 1006.3 |
| 20260504013041 | 49 | 152 | 0.0 | 0.0 | 0.01 | 0.05 | 0.05 | 85 | 1006.7 |
| 20260504012316 | 49 | 145 | 0.0 | 0.0 | 0.01 | 0.05 | 0.05 | 84 | 1006.5 |
| 20260504011803 | 49 | 145 | 0.0 | 0.0 | 0.01 | 0.05 | 0.05 | 82 | 1006.8 |
| 20260504011303 | 49 | 146 | 0.0 | 0.0 | 0.01 | 0.05 | 0.05 | 85 | 1006.2 |
| 20260504010803 | 50 | 146 | 0.0 | 0.0 | 0.01 | 0.05 | 0.05 | 84 | 1006.3 |
| 20260504010303 | 50 | 146 | 0.0 | 0.0 | 0.01 | 0.05 | 0.05 | 82 | 1006.4 |
| 20260504005804 | 50 | 146 | 0.0 | 0.0 | 0.01 | 0.05 | 0.05 | 81 | 1006.6 |
| 20260504005305 | 51 | 146 | 0.0 | 0.9 | 0.01 | 0.05 | 0.05 | 78 | 1006.4 |
| 20260504004804 | 51 | 146 | 0.0 | 2.6 | 0.01 | 0.05 | 0.05 | 77 | 1006.7 |
| 20260504004527 | 51 | 119 | 0.9 | 2.6 | 0.00 | 0.04 | 0.04 | 76 | 1006.8 |
| 20260504003804 | 51 | 125 | 0.0 | 1.7 | 0.00 | 0.04 | 0.04 | 75 | 1006.7 |
| 20260504003304 | 51 | 133 | 0.9 | 2.6 | 0.00 | 0.04 | 0.04 | 75 | 1006.6 |
| 20260504002804 | 51 | 68 | 0.0 | 2.6 | 0.00 | 0.04 | 0.04 | 75 | 1006.7 |
| 20260504002304 | 51 | 60 | 0.0 | 2.6 | 0.00 | 0.04 | 0.04 | 75 | 1006.5 |
| 20260504001804 | 51 | 57 | 0.9 | 2.6 | 0.00 | 0.04 | 0.04 | 75 | 1006.7 |
| 20260504001303 | 51 | 117 | 0.0 | 3.5 | 0.00 | 0.04 | 0.04 | 74 | 1006.6 |
| 20260504000803 | 52 | 131 | 0.0 | 6.1 | 0.00 | 0.04 | 0.04 | 73 | 1006.6 |
| 20260504000304 | 52 | 140 | 0.0 | 6.1 | 0.00 | 0.04 | 0.04 | 72 | 1006.6 |
| 20260504000248 | 52 | 85 | 0.9 | 5.2 | 0.00 | 0.04 | 0.04 | 71 | 1006.7 |
| 20260503235304 | 52 | 114 | 2.6 | 6.1 | 0.00 | 0.04 | 0.04 | 72 | 1006.5 |
| 20260503234803 | 52 | 334 | 1.7 | 7.8 | 0.00 | 0.04 | 0.04 | 72 | 1006.7 |
| 20260503234304 | 52 | 73 | 0.9 | 7.8 | 0.00 | 0.04 | 0.04 | 72 | 1006.7 |
| 20260503233802 | 51 | 38 | 1.7 | 6.1 | 0.00 | 0.04 | 0.04 | 73 | 1006.8 |
| 20260503233301 | 51 | 44 | 2.6 | 7.0 | 0.00 | 0.04 | 0.04 | 74 | 1006.4 |
| 20260503233019 | 51 | 100 | 0.9 | 7.0 | 0.01 | 0.04 | 0.04 | 75 | 1006.7 |
| 20260503232523 | 51 | 94 | 1.7 | 8.7 | 0.01 | 0.04 | 0.04 | 75 | 1007.0 |
| 20260503231800 | 51 | 59 | 4.3 | 8.7 | 0.01 | 0.04 | 0.04 | 76 | 1006.9 |
| 20260503231521 | 50 | 12 | 2.6 | 7.0 | 0.02 | 0.04 | 0.04 | 78 | 1006.9 |
| 20260503231021 | 50 | 53 | 1.7 | 5.2 | 0.02 | 0.04 | 0.04 | 79 | 1006.9 |
| 20260503230300 | 50 | 101 | 2.6 | 5.2 | 0.02 | 0.04 | 0.04 | 80 | 1007.1 |
| 20260503225801 | 50 | 54 | 3.5 | 5.2 | 0.02 | 0.04 | 0.04 | 80 | 1007.1 |
| 20260503225300 | 50 | 49 | 1.7 | 3.5 | 0.02 | 0.04 | 0.04 | 81 | 1007.2 |
| 20260503224801 | 50 | 67 | 0.9 | 6.1 | 0.03 | 0.04 | 0.04 | 81 | 1007.1 |
| 20260503224518 | 49 | 126 | 2.6 | 6.1 | 0.03 | 0.04 | 0.04 | 80 | 1007.1 |
| 20260503223801 | 49 | 242 | 0.9 | 8.7 | 0.04 | 0.04 | 0.04 | 81 | 1007.2 |
| 20260503223301 | 50 | 52 | 1.7 | 9.6 | 0.04 | 0.04 | 0.04 | 79 | 1007.2 |
| 20260503222749 | 50 | 75 | 5.2 | 9.6 | 0.03 | 0.03 | 0.03 | 78 | 1007.0 |
| 20260503222515 | 50 | 136 | 2.6 | 9.6 | 0.03 | 0.03 | 0.03 | 77 | 1007.6 |
| 20260503221749 | 50 | 336 | 1.7 | 13.9 | 0.03 | 0.03 | 0.03 | 76 | 1007.5 |
| 20260503221243 | 50 | 95 | 7.8 | 13.9 | 0.02 | 0.02 | 0.03 | 76 | 1007.6 |
| 20260503220743 | 49 | 107 | 3.5 | 8.7 | 0.02 | 0.02 | 0.02 | 78 | 1007.3 |
| 20260503220231 | 48 | 92 | 2.6 | 3.5 | 0.02 | 0.02 | 0.02 | 80 | 1007.5 |
| 20260503215731 | 48 | 34 | 0.0 | 1.7 | 0.02 | 0.02 | 0.02 | 78 | 1007.3 |
| 20260503215232 | 47 | 13 | 0.0 | 1.7 | 0.02 | 0.02 | 0.02 | 76 | 1007.3 |
| 20260503214730 | 48 | 349 | 0.0 | 2.6 | 0.01 | 0.01 | 0.01 | 76 | 1007.4 |
| 20260503214230 | 48 | 355 | 0.9 | 2.6 | 0.01 | 0.01 | 0.01 | 75 | 1007.3 |
| 20260503213730 | 48 | 335 | 0.9 | 3.5 | 0.00 | 0.00 | 0.00 | 72 | 1007.5 |
| 20260503213453 | 48 | 141 | 0.0 | 6.1 | 0.00 | 0.00 | 0.00 | 70 | 1007.3 |
| 20260503212729 | 49 | 291 | 1.7 | 6.1 | 0.00 | 0.00 | 0.00 | 66 | 1006.9 |
| 20260503212229 | 49 | 2 | 1.7 | 6.1 | 0.00 | 0.00 | 0.00 | 64 | 1007.1 |
| 20260503211729 | 49 | 51 | 2.6 | 7.8 | 0.00 | 0.00 | 0.00 | 61 | 1006.8 |
| 20260503211229 | 50 | 9 | 1.7 | 7.8 | 0.00 | 0.00 | 0.00 | 59 | 1006.8 |
| 20260503210733 | 50 | 287 | 1.7 | 7.0 | 0.00 | 0.00 | 0.00 | 57 | 1006.9 |
| 20260503210229 | 51 | 355 | 3.5 | 6.1 | 0.00 | 0.00 | 0.00 | 55 | 1006.8 |
| 20260503205728 | 51 | 10 | 2.6 | 6.1 | 0.00 | 0.00 | 0.00 | 56 | 1006.7 |
| 20260503205229 | 51 | 329 | 2.6 | 6.1 | 0.00 | 0.00 | 0.00 | 56 | 1006.6 |
| 20260503204729 | 51 | 354 | 3.5 | 7.8 | 0.00 | 0.00 | 0.00 | 56 | 1006.8 |
| 20260503204229 | 52 | 313 | 1.7 | 7.8 | 0.00 | 0.00 | 0.00 | 56 | 1006.8 |
| 20260503203729 | 53 | 345 | 6.1 | 7.8 | 0.00 | 0.00 | 0.00 | 52 | 1007.0 |
| 20260503203228 | 54 | 25 | 1.7 | 7.8 | 0.00 | 0.00 | 0.00 | 51 | 1007.1 |
| 20260503202728 | 54 | 32 | 2.6 | 6.1 | 0.00 | 0.00 | 0.00 | 48 | 1007.4 |
| 20260503202228 | 54 | 313 | 1.7 | 7.8 | 0.00 | 0.00 | 0.00 | 49 | 1007.1 |
| 20260503201727 | 54 | 324 | 3.5 | 7.8 | 0.00 | 0.00 | 0.00 | 47 | 1007.2 |
| 20260503201227 | 55 | 58 | 4.3 | 7.0 | 0.00 | 0.00 | 0.00 | 46 | 1007.0 |
| 20260503200728 | 55 | 347 | 0.9 | 8.7 | 0.00 | 0.00 | 0.00 | 47 | 1007.1 |
| 20260503200216 | 55 | 58 | 3.5 | 8.7 | 0.00 | 0.00 | 0.00 | 48 | 1007.0 |
| 20260503195715 | 55 | 328 | 3.5 | 6.1 | 0.00 | 0.00 | 0.00 | 47 | 1007.2 |
| 20260503195216 | 55 | 302 | 3.5 | 7.0 | 0.00 | 0.00 | 0.00 | 47 | 1007.2 |
| 20260503194715 | 55 | 328 | 4.3 | 8.7 | 0.00 | 0.00 | 0.00 | 45 | 1007.3 |
| 20260503194216 | 55 | 318 | 6.1 | 8.7 | 0.00 | 0.00 | 0.00 | 47 | 1007.5 |
| 20260503193716 | 55 | 344 | 5.2 | 11.3 | 0.00 | 0.00 | 0.00 | 43 | 1007.7 |
| 20260503193441 | 54 | 30 | 5.2 | 12.2 | 0.00 | 0.00 | 0.00 | 43 | 1007.9 |
| 20260503192704 | 54 | 356 | 2.6 | 13.9 | 0.00 | 0.00 | 0.00 | 43 | 1008.3 |
| 20260503192204 | 55 | 3 | 7.8 | 13.9 | 0.00 | 0.00 | 0.00 | 43 | 1008.1 |
| 20260503191704 | 55 | 336 | 3.5 | 12.2 | 0.00 | 0.00 | 0.00 | 44 | 1008.5 |
| 20260503191159 | 55 | 46 | 7.8 | 13.0 | 0.00 | 0.00 | 0.00 | 41 | 1008.5 |
| 20260503190650 | 54 | 351 | 7.8 | 13.0 | 0.00 | 0.00 | 0.00 | 42 | 1008.5 |
| 20260503190150 | 55 | 21 | 7.0 | 9.6 | 0.00 | 0.00 | 0.00 | 40 | 1008.6 |
| 20260503185915 | 54 | 310 | 3.5 | 9.6 | 0.00 | 0.00 | 0.00 | 40 | 1008.7 |
| 20260503185150 | 54 | 323 | 7.0 | 9.6 | 0.00 | 0.00 | 0.00 | 38 | 1008.7 |
| 20260503184650 | 54 | 49 | 7.0 | 9.6 | 0.00 | 0.00 | 0.00 | 38 | 1008.6 |
| 20260503184149 | 54 | 25 | 1.7 | 7.0 | 0.00 | 0.00 | 0.00 | 35 | 1008.8 |
| 20260503183649 | 54 | 40 | 2.6 | 7.0 | 0.00 | 0.00 | 0.00 | 36 | 1008.9 |
| 20260503183150 | 54 | 346 | 3.5 | 7.0 | 0.00 | 0.00 | 0.00 | 37 | 1008.9 |
| 20260503182650 | 54 | 310 | 1.7 | 8.7 | 0.00 | 0.00 | 0.00 | 36 | 1009.0 |
| 20260503182150 | 54 | 342 | 2.6 | 11.3 | 0.00 | 0.00 | 0.00 | 35 | 1009.0 |
| 20260503181649 | 54 | 15 | 5.2 | 11.3 | 0.00 | 0.00 | 0.00 | 32 | 1009.3 |
| 20260503181149 | 55 | 15 | 5.2 | 9.6 | 0.00 | 0.00 | 0.00 | 34 | 1009.1 |
| 20260503180907 | 54 | 268 | 1.7 | 9.6 | 0.00 | 0.00 | 0.00 | 37 | 1009.2 |
| 20260503180150 | 53 | 344 | 5.2 | 12.2 | 0.00 | 0.00 | 0.00 | 37 | 1009.5 |
| 20260503175649 | 52 | 16 | 4.3 | 12.2 | 0.00 | 0.00 | 0.00 | 37 | 1009.5 |
| 20260503175411 | 52 | 317 | 7.0 | 12.2 | 0.00 | 0.00 | 0.00 | 38 | 1009.7 |
| 20260503174649 | 51 | 0 | 3.5 | 12.2 | 0.00 | 0.00 | 0.00 | 40 | 1009.6 |
| 20260503174407 | 51 | 347 | 2.6 | 12.2 | 0.00 | 0.00 | 0.00 | 44 | 1009.6 |
| 20260503173648 | 51 | 0 | 4.3 | 11.3 | 0.00 | 0.00 | 0.00 | 44 | 1009.8 |
| 20260503173148 | 50 | 10 | 6.1 | 11.3 | 0.00 | 0.00 | 0.00 | 45 | 1010.0 |
| 20260503172914 | 49 | 356 | 3.5 | 7.8 | 0.00 | 0.00 | 0.00 | 47 | 1010.2 |
| 20260503172410 | 49 | 334 | 2.6 | 7.8 | 0.00 | 0.00 | 0.00 | 52 | 1010.2 |
| 20260503171648 | 49 | 331 | 5.2 | 7.8 | 0.00 | 0.00 | 0.00 | 50 | 1010.1 |
| 20260503171410 | 47 | 316 | 3.5 | 8.7 | 0.00 | 0.00 | 0.00 | 53 | 1010.0 |
| 20260503170649 | 48 | 334 | 5.2 | 8.7 | 0.00 | 0.00 | 0.00 | 51 | 1010.3 |
| 20260503170407 | 48 | 354 | 4.3 | 9.6 | 0.00 | 0.00 | 0.00 | 51 | 1010.3 |
| 20260503160148 | 48 | 41 | 4.3 | 8.7 | 0.00 | 0.00 | 0.00 | 53 | 1010.9 |
| 20260503150646 | 47 | 329 | 2.6 | 7.8 | 0.00 | 0.00 | 0.00 | 58 | 1011.3 |
| 20260503150146 | 46 | 327 | 4.3 | 7.0 | 0.00 | 0.00 | 0.00 | 60 | 1011.4 |
| 20260503140145 | 46 | 283 | 2.6 | 6.1 | 0.00 | 0.00 | 0.00 | 54 | 1012.0 |
| 20260503130858 | 44 | 25 | 2.6 | 5.2 | 0.00 | 0.00 | 0.00 | 51 | 1012.0 |
| 20260503130141 | 44 | 100 | 1.7 | 5.2 | 0.00 | 0.00 | 0.00 | 53 | 1011.9 |
| 20260503120140 | 42 | 70 | 0.9 | 1.7 | 0.00 | 0.00 | 0.00 | 56 | 1012.0 |
| 20260503110127 | 33 | 180 | 0.0 | 0.0 | 0.00 | 0.00 | 0.00 | 72 | 1012.2 |
| 20260503100116 | 29 | 173 | 0.0 | 0.0 | 0.00 | 0.00 | 0.00 | 79 | 1011.9 |
| 20260503090114 | 29 | 171 | 0.0 | 0.9 | 0.00 | 0.00 | 0.00 | 77 | 1012.3 |
| 20260503081602 | 30 | 165 | 0.0 | 0.9 | 0.00 | 0.00 | 0.00 | 73 | 1012.5 |
| 20260503081322 | 30 | 169 | 0.9 | 0.9 | 0.00 | 0.00 | 0.00 | 73 | 1012.6 |
| 20260503080820 | 30 | 161 | 0.0 | 0.9 | 0.00 | 0.00 | 0.00 | 73 | 1012.4 |
| 20260503080322 | 31 | 181 | 0.0 | 0.9 | 0.00 | 0.00 | 0.00 | 73 | 1012.6 |
| 20260503072818 | 31 | 170 | 0.0 | 0.9 | 0.00 | 0.00 | 0.00 | 69 | 1012.4 |
| 20260503072100 | 32 | 165 | 0.0 | 0.9 | 0.00 | 0.00 | 0.00 | 69 | 1012.7 |
| 20260503071600 | 32 | 170 | 0.9 | 0.9 | 0.00 | 0.00 | 0.00 | 69 | 1012.6 |
| 20260503071059 | 31 | 164 | 0.0 | 0.0 | 0.00 | 0.00 | 0.00 | 70 | 1012.5 |
| 20260503070559 | 32 | 169 | 0.0 | 0.0 | 0.00 | 0.00 | 0.00 | 70 | 1012.4 |
| 20260503054559 | 33 | 161 | 0.0 | 0.9 | 0.00 | 0.00 | 0.00 | 74 | 1012.9 |
| 20260503054058 | 33 | 162 | 0.0 | 0.9 | 0.00 | 0.00 | 0.00 | 74 | 1012.9 |
| 20260503053558 | 33 | 166 | 0.0 | 1.7 | 0.00 | 0.00 | 0.00 | 75 | 1013.0 |
| 20260503053058 | 33 | 175 | 0.9 | 1.7 | 0.00 | 0.00 | 0.00 | 75 | 1012.8 |
| 20260503052557 | 33 | 167 | 0.0 | 1.7 | 0.00 | 0.00 | 0.00 | 75 | 1012.9 |
| 20260503052057 | 33 | 143 | 0.9 | 1.7 | 0.00 | 0.00 | 0.00 | 76 | 1013.1 |
| 20260503051558 | 33 | 171 | 0.9 | 0.9 | 0.00 | 0.00 | 0.00 | 76 | 1013.1 |
| 20260503051542 | 33 | 173 | 0.9 | 0.9 | 0.00 | 0.00 | 0.00 | 77 | 1013.0 |
| 20260503050558 | 33 | 163 | 0.0 | 0.9 | 0.00 | 0.00 | 0.00 | 77 | 1013.1 |
| 20260503050058 | 33 | 164 | 0.0 | 0.0 | 0.00 | 0.00 | 0.00 | 77 | 1012.9 |
| 20260503045557 | 33 | 163 | 0.0 | 0.0 | 0.00 | 0.00 | 0.00 | 77 | 1013.2 |
| 20260503045316 | 33 | 146 | 0.0 | 0.0 | 0.00 | 0.00 | 0.00 | 76 | 1013.2 |
| 20260503044558 | 33 | 156 | 0.0 | 0.0 | 0.00 | 0.00 | 0.00 | 76 | 1013.1 |
| 20260503044536 | 34 | 165 | 0.0 | 0.0 | 0.00 | 0.00 | 0.00 | 75 | 1013.2 |
| 20260503043558 | 34 | 169 | 0.0 | 0.9 | 0.00 | 0.00 | 0.00 | 75 | 1013.3 |
| 20260503043058 | 34 | 156 | 0.0 | 0.9 | 0.00 | 0.00 | 0.00 | 75 | 1013.4 |
| 20260503042817 | 34 | 165 | 0.0 | 0.9 | 0.00 | 0.00 | 0.00 | 75 | 1013.4 |
| 20260503042321 | 34 | 155 | 0.0 | 0.9 | 0.00 | 0.00 | 0.00 | 75 | 1013.1 |
| 20260503041821 | 34 | 176 | 0.0 | 0.0 | 0.00 | 0.00 | 0.00 | 75 | 1013.3 |
| 20260503041058 | 34 | 159 | 0.0 | 0.0 | 0.00 | 0.00 | 0.00 | 75 | 1013.4 |
| 20260503040558 | 34 | 147 | 0.0 | 0.9 | 0.00 | 0.00 | 0.00 | 74 | 1013.6 |
| 20260503040057 | 34 | 162 | 0.0 | 0.9 | 0.00 | 0.00 | 0.00 | 74 | 1013.2 |
| 20260503035557 | 35 | 166 | 0.9 | 0.9 | 0.00 | 0.00 | 0.00 | 74 | 1013.4 |
| 20260503035056 | 35 | 161 | 0.0 | 1.7 | 0.00 | 0.00 | 0.00 | 74 | 1013.4 |
| 20260503034556 | 35 | 187 | 0.0 | 1.7 | 0.00 | 0.00 | 0.00 | 73 | 1013.3 |
| 20260503034056 | 35 | 174 | 1.7 | 1.7 | 0.00 | 0.00 | 0.00 | 73 | 1013.5 |
| 20260503033824 | 35 | 143 | 0.0 | 0.9 | 0.00 | 0.00 | 0.00 | 73 | 1013.3 |
| 20260503033056 | 35 | 156 | 0.0 | 1.7 | 0.00 | 0.00 | 0.00 | 73 | 1013.4 |
| 20260503032557 | 35 | 159 | 1.7 | 1.7 | 0.00 | 0.00 | 0.00 | 73 | 1013.5 |
| 20260503032057 | 35 | 167 | 0.9 | 0.9 | 0.00 | 0.00 | 0.00 | 72 | 1013.2 |
| 20260503031557 | 35 | 156 | 0.0 | 0.9 | 0.00 | 0.00 | 0.00 | 72 | 1013.2 |
| 20260503031057 | 35 | 154 | 0.9 | 0.9 | 0.00 | 0.00 | 0.00 | 72 | 1013.4 |
| 20260503030815 | 36 | 170 | 0.9 | 0.9 | 0.00 | 0.00 | 0.00 | 71 | 1013.3 |
| 20260503030056 | 36 | 163 | 0.9 | 0.9 | 0.00 | 0.00 | 0.00 | 70 | 1013.3 |
| 20260503025556 | 36 | 160 | 0.0 | 0.0 | 0.00 | 0.00 | 0.00 | 70 | 1013.3 |
| 20260503025044 | 36 | 160 | 0.0 | 0.9 | 0.00 | 0.00 | 0.00 | 69 | 1013.3 |
| 20260503024543 | 36 | 160 | 0.0 | 0.9 | 0.00 | 0.00 | 0.00 | 69 | 1013.5 |
| 20260503024043 | 36 | 113 | 0.0 | 0.0 | 0.00 | 0.00 | 0.00 | 69 | 1013.4 |
| 20260503023544 | 37 | 112 | 0.0 | 0.0 | 0.00 | 0.00 | 0.00 | 68 | 1013.4 |
| 20260503023044 | 37 | 113 | 0.0 | 0.0 | 0.00 | 0.00 | 0.00 | 68 | 1013.4 |
| 20260503022544 | 37 | 41 | 0.0 | 0.0 | 0.00 | 0.00 | 0.00 | 66 | 1013.6 |
| 20260503022043 | 37 | 109 | 0.0 | 0.0 | 0.00 | 0.00 | 0.00 | 65 | 1013.4 |
| 20260503021543 | 37 | 109 | 0.0 | 0.0 | 0.00 | 0.00 | 0.00 | 66 | 1013.6 |
| 20260503021044 | 36 | 109 | 0.0 | 0.0 | 0.00 | 0.00 | 0.00 | 67 | 1013.5 |
| 20260503020544 | 37 | 33 | 0.0 | 0.0 | 0.00 | 0.00 | 0.00 | 66 | 1013.7 |
| 20260503020044 | 37 | 33 | 0.0 | 0.0 | 0.00 | 0.00 | 0.00 | 64 | 1013.7 |
| 20260503015544 | 37 | 33 | 0.0 | 0.0 | 0.00 | 0.00 | 0.00 | 64 | 1013.6 |
| 20260503015306 | 37 | 33 | 0.0 | 0.0 | 0.00 | 0.00 | 0.00 | 63 | 1013.7 |